Location: Strohbehn Observatory
(42.4649°N, 93.8239°W)
Time: 18:59:33
(UTC-05:00)

SL-16 R/B - Visible Passes

Search period start: 24 March 2017 00:00
Search period end: 03 April 2017 00:00
Orbit: 842 x 846 km, 71.0° (Epoch: 23 March)

Date Brightness Start Highest point End Pass type
(mag) Time Alt. Az. Time Alt. Az. Time Alt. Az.
24 Mar 3.7 03:31:51 32° ENE 03:31:51 32° ENE 03:35:12 10° NE visible
24 Mar 3.1 05:13:44 30° WNW 05:14:05 30° NW 05:19:04 10° N visible
25 Mar 4.0 03:18:02 27° ENE 03:18:02 27° ENE 03:20:55 10° NE visible
25 Mar 3.2 04:59:54 31° NW 04:59:54 31° NW 05:04:50 10° N visible
26 Mar 4.2 03:04:10 24° NE 03:04:10 24° NE 03:06:37 10° NE visible
26 Mar 3.2 04:46:02 31° NW 04:46:02 31° NW 04:50:36 10° N visible
27 Mar 4.3 02:50:16 21° NE 02:50:16 21° NE 02:52:20 10° NE visible
27 Mar 3.3 04:32:08 31° NW 04:32:08 31° NW 04:36:22 10° N visible
28 Mar 4.5 02:36:20 19° NE 02:36:20 19° NE 02:38:03 10° NE visible
28 Mar 3.4 04:18:12 31° NNW 04:18:12 31° NNW 04:22:08 10° N visible
29 Mar 4.6 02:22:22 17° NE 02:22:22 17° NE 02:23:45 10° NE visible
29 Mar 3.5 04:04:14 30° NNW 04:04:14 30° NNW 04:07:54 10° N visible
30 Mar 4.7 02:08:23 15° NE 02:08:23 15° NE 02:09:28 10° NE visible
30 Mar 3.6 03:50:14 29° NNW 03:50:14 29° NNW 03:53:40 10° N visible
31 Mar 4.8 01:54:22 14° NE 01:54:22 14° NE 01:55:10 10° NE visible
31 Mar 3.7 03:36:13 28° NNW 03:36:13 28° NNW 03:39:26 10° N visible
01 Apr 4.9 01:40:20 12° NE 01:40:20 12° NE 01:40:53 10° NE visible
01 Apr 3.8 03:22:11 27° NNW 03:22:11 27° NNW 03:25:12 10° N visible
02 Apr 4.9 01:26:16 11° NE 01:26:16 11° NE 01:26:34 10° NE visible
02 Apr 3.9 03:08:07 27° N 03:08:07 27° N 03:10:58 10° NNE visible
